GW2652 Weather Reports


Display with metric or nautical units.
time (UTC)temp
F
wind
direction
speed
MPH
gust
MPH
rain 1hr
in
rain 24hr
in
rain mn
in
humidity
%
barometer
mb
20260505170932 75 210 4.0 6.0 0.00 0.07 0.07 50 1003.8
20260505170429 75 193 3.0 7.0 0.00 0.07 0.07 52 1003.8
20260505165924 75 196 6.0 7.0 0.00 0.07 0.07 50 1003.8
20260505165420 75 233 4.0 6.0 0.00 0.07 0.07 48 1004.1
20260505164916 76 264 4.0 7.0 0.00 0.07 0.07 49 1004.2
20260505164413 75 292 2.0 3.0 0.00 0.07 0.07 49 1004.1
20260505163911 75 200 6.0 8.0 0.00 0.07 0.07 50 1004.2
20260505163410 75 156 4.0 8.0 0.00 0.07 0.07 51 1004.3
20260505162908 75 261 7.0 8.0 0.00 0.07 0.07 49 1004.4
20260505162404 75 304 12.0 16.0 0.00 0.07 0.07 50 1004.7
20260505161901 76 210 1.0 1.0 0.00 0.07 0.07 49 1004.4
20260505161358 75 106 2.0 3.0 0.00 0.07 0.07 47 1004.4
20260505160855 75 208 3.0 4.0 0.00 0.07 0.07 51 1004.6
20260505160353 75 264 4.0 6.0 0.00 0.07 0.07 52 1004.6
20260505153332 73 317 9.0 10.0 0.00 0.07 0.07 50 1004.8
20260505152828 74 270 10.0 14.0 0.00 0.07 0.07 48 1004.8
20260505152325 74 195 7.0 10.0 0.00 0.07 0.07 50 1004.7
20260505151820 74 231 5.0 7.0 0.00 0.07 0.07 48 1004.7
20260505151317 73 197 4.0 7.0 0.00 0.07 0.07 49 1004.7
20260505150813 74 213 3.0 3.0 0.00 0.07 0.07 50 1004.6
20260505150310 73 172 2.0 2.0 0.00 0.07 0.07 51 1004.5
20260505140235 69 286 4.0 6.0 0.00 0.07 0.07 62 1005.4
20260505130159 58 169 0.0 0.0 0.00 0.07 0.07 95 1006.0
20260505124649 56 169 0.0 0.0 0.00 0.07 0.07 99 1006.1
20260505124145 56 169 0.0 0.0 0.00 0.07 0.07 98 1006.0
20260505123641 55 169 0.0 0.0 0.00 0.07 0.07 98 1005.9
20260505123138 55 169 0.0 0.0 0.00 0.07 0.07 98 1005.9
20260505122634 55 186 0.0 0.0 0.00 0.07 0.07 97 1005.9
20260505122132 55 186 0.0 0.0 0.00 0.07 0.07 95 1006.0
20260505121623 55 168 0.0 0.0 0.24 0.07 0.07 96 1005.7
20260505121120 56 143 1.0 1.0 0.42 0.07 0.07 90 1005.6
20260505120615 59 122 1.0 1.0 0.19 0.03 0.03 83 1006.1
20260505120111 59 208 2.0 2.0 0.00 0.00 0.00 77 1006.7
20260505115606 60 117 2.0 2.0 0.00 0.00 0.00 73 1006.0
20260505115104 60 142 0.0 1.0 0.00 0.00 0.00 71 1006.1
20260505114601 60 262 2.0 3.0 0.00 0.00 0.00 72 1006.0
20260505114057 60 136 3.0 4.0 0.00 0.00 0.00 73 1005.9
20260505113553 59 240 0.0 1.0 0.00 0.00 0.00 72 1005.9
20260505113050 59 243 1.0 1.0 0.00 0.00 0.00 73 1005.8
20260505112546 58 102 1.0 2.0 0.00 0.00 0.00 76 1005.9
20260505112044 58 139 0.0 1.0 0.00 0.00 0.00 77 1006.1
20260505111538 56 151 1.0 1.0 0.00 0.00 0.00 78 1006.1
20260505111035 55 151 0.0 0.0 0.00 0.00 0.00 80 1006.0
20260505110531 55 132 0.0 0.0 0.00 0.00 0.00 85 1005.7
20260505102004 46 168 0.0 0.0 0.00 0.00 0.00 98 1005.6
20260505101503 46 141 0.0 0.0 0.00 0.00 0.00 98 1005.2
20260505100958 45 141 0.0 0.0 0.00 0.00 0.00 98 1005.2
20260505100455 46 141 0.0 1.0 0.00 0.00 0.00 98 1005.1
20260505095951 46 142 0.0 0.0 0.00 0.00 0.00 98 1005.0
20260505095448 46 142 0.0 0.0 0.00 0.00 0.00 98 1004.8
20260505094944 46 142 0.0 0.0 0.00 0.00 0.00 98 1004.9
20260505094441 46 141 0.0 0.0 0.00 0.00 0.00 98 1004.8
20260505093937 46 141 0.0 0.0 0.00 0.00 0.00 97 1004.7
20260505093434 46 141 0.0 0.0 0.00 0.00 0.00 98 1004.8
20260505092931 46 140 1.0 1.0 0.00 0.00 0.00 98 1004.9
20260505092429 47 140 0.0 0.0 0.00 0.00 0.00 98 1004.6
20260505091926 47 140 0.0 0.0 0.00 0.00 0.00 98 1004.8
20260505091424 47 140 0.0 0.0 0.00 0.00 0.00 97 1004.7
20260505090921 48 140 0.0 0.0 0.00 0.00 0.00 97 1004.8
20260505090420 48 140 0.0 0.0 0.00 0.00 0.00 97 1004.5
20260505085917 48 140 0.0 0.0 0.00 0.00 0.00 97 1004.7
20260505085415 48 140 0.0 0.0 0.00 0.00 0.00 97 1004.7
20260505084912 49 140 0.0 0.0 0.00 0.00 0.00 96 1004.7
20260505084410 49 140 0.0 0.0 0.00 0.00 0.00 95 1004.7
20260505083908 49 140 0.0 0.0 0.00 0.00 0.00 93 1004.7
20260505083406 50 140 0.0 0.0 0.00 0.00 0.00 92 1004.8
20260505082901 50 151 0.0 0.0 0.00 0.00 0.00 93 1004.7
20260505082357 50 132 0.0 1.0 0.00 0.00 0.00 93 1004.6
20260505081854 51 141 0.0 0.0 0.00 0.00 0.00 94 1004.7
20260505081351 51 141 0.0 0.0 0.00 0.00 0.00 93 1004.6
20260505080848 50 141 0.0 0.0 0.00 0.00 0.00 93 1004.7
20260505080343 50 140 1.0 1.0 0.00 0.00 0.00 92 1004.4
20260505075839 51 141 0.0 0.0 0.00 0.00 0.00 92 1004.7
20260505075336 51 139 0.0 0.0 0.00 0.00 0.00 92 1004.7
20260505074833 52 139 0.0 0.0 0.00 0.00 0.00 91 1004.5
20260505074330 53 131 0.0 0.0 0.00 0.00 0.00 86 1004.6
20260505073828 54 174 0.0 0.0 0.00 0.00 0.00 82 1004.9
20260505073326 56 159 0.0 1.0 0.00 0.00 0.00 75 1004.8
20260505072822 56 133 0.0 0.0 0.00 0.00 0.00 69 1004.8
20260505072319 55 210 1.0 1.0 0.00 0.00 0.00 71 1004.8
20260505071815 55 135 1.0 2.0 0.00 0.00 0.00 70 1004.9
20260505071311 54 137 1.0 1.0 0.00 0.00 0.00 71 1004.8
20260505070809 54 136 0.0 0.0 0.00 0.00 0.00 69 1004.8
20260505070306 54 168 0.0 1.0 0.00 0.00 0.00 73 1004.9
20260505065800 54 137 1.0 1.0 0.00 0.00 0.00 70 1005.1
20260505065258 53 128 1.0 2.0 0.00 0.00 0.00 72 1005.1
20260505064755 54 117 0.0 1.0 0.00 0.00 0.00 69 1005.1
20260505064252 54 144 0.0 0.0 0.00 0.00 0.00 71 1005.1
20260505063750 55 128 0.0 1.0 0.00 0.00 0.00 69 1004.9
20260505063246 55 141 0.0 0.0 0.00 0.00 0.00 68 1004.8
20260505062743 55 191 1.0 1.0 0.00 0.00 0.00 69 1004.8
20260505062240 56 136 0.0 1.0 0.00 0.00 0.00 68 1004.8
20260505061737 55 191 0.0 0.0 0.00 0.00 0.00 69 1004.8
20260505061235 55 147 1.0 1.0 0.00 0.00 0.00 68 1004.8
20260505060732 55 162 1.0 1.0 0.00 0.00 0.00 69 1004.7
20260505060229 55 121 0.0 1.0 0.00 0.00 0.00 67 1005.0
20260505055724 55 119 1.0 1.0 0.00 0.00 0.00 67 1004.9
20260505055221 54 200 0.0 0.0 0.00 0.00 0.00 72 1004.9
20260505054718 53 167 0.0 1.0 0.00 0.00 0.00 74 1005.0
20260505054216 53 148 0.0 1.0 0.00 0.00 0.00 72 1005.0
20260505053714 54 127 2.0 2.0 0.00 0.00 0.00 72 1005.0
20260505053210 55 153 0.0 1.0 0.00 0.00 0.00 71 1005.0
20260505052708 55 144 1.0 2.0 0.00 0.00 0.00 69 1005.0
20260505052204 56 155 0.0 1.0 0.00 0.00 0.00 66 1005.0
20260505051701 56 158 2.0 3.0 0.00 0.00 0.00 65 1005.3
20260505051159 57 116 1.0 1.0 0.00 0.00 0.00 65 1005.4
20260505050657 57 148 0.0 0.0 0.00 0.00 0.00 64 1005.3
20260505050155 56 144 2.0 4.0 0.00 0.00 0.00 64 1005.3
20260505041625 57 134 0.0 0.0 0.00 0.00 0.00 65 1005.2
20260505041122 58 134 0.0 0.0 0.00 0.00 0.00 63 1005.1
20260505040619 58 174 0.0 0.0 0.00 0.00 0.00 64 1005.3
20260505040116 58 157 0.0 1.0 0.00 0.00 0.00 61 1004.9
20260505035613 58 165 0.0 1.0 0.00 0.00 0.00 64 1005.0
20260505035109 58 161 1.0 1.0 0.00 0.00 0.00 63 1004.8
20260505034606 59 153 0.0 0.0 0.00 0.00 0.00 63 1004.8
20260505034102 59 225 2.0 2.0 0.00 0.00 0.00 60 1004.7
20260505033559 59 136 0.0 1.0 0.00 0.00 0.00 64 1004.9
20260505033058 59 185 0.0 0.0 0.00 0.00 0.00 60 1005.0
20260505032555 58 240 2.0 2.0 0.00 0.00 0.00 60 1004.9
20260505032051 59 160 0.0 1.0 0.00 0.00 0.00 61 1005.0
20260505031549 59 193 0.0 0.0 0.00 0.00 0.00 60 1005.0
20260505031045 59 144 1.0 1.0 0.00 0.00 0.00 61 1004.8
20260505030542 60 146 1.0 1.0 0.00 0.00 0.00 59 1005.0
20260505030038 59 182 0.0 0.0 0.00 0.00 0.00 59 1005.0
20260505025534 58 220 1.0 1.0 0.00 0.00 0.00 60 1004.9
20260505025033 59 151 0.0 0.0 0.00 0.00 0.00 61 1005.0
20260505024530 59 189 0.0 1.0 0.00 0.00 0.00 61 1004.9
20260505024027 59 196 0.0 1.0 0.00 0.00 0.00 63 1005.2
20260505023524 59 150 0.0 0.0 0.00 0.00 0.00 60 1005.0
20260505023021 58 172 1.0 1.0 0.00 0.00 0.00 62 1004.9
20260505022519 58 132 0.0 1.0 0.00 0.00 0.00 65 1005.1
20260505022016 57 168 1.0 1.0 0.00 0.00 0.00 63 1005.0
20260505021512 55 145 1.0 1.0 0.00 0.00 0.00 63 1005.2
20260505021009 55 196 0.0 0.0 0.00 0.00 0.00 69 1005.4
20260505020503 55 158 1.0 1.0 0.00 0.00 0.00 67 1005.2
20260505020000 52 138 1.0 2.0 0.00 0.00 0.00 72 1005.4
20260505015458 51 180 0.0 0.0 0.00 0.00 0.00 79 1005.2
20260505014954 50 149 0.0 0.0 0.00 0.00 0.00 81 1005.1
20260505014451 50 177 0.0 1.0 0.00 0.00 0.00 81 1005.0
20260505013949 51 181 0.0 0.0 0.00 0.00 0.00 80 1005.1
20260505013446 51 181 0.0 0.0 0.00 0.00 0.00 79 1005.2
20260505012943 51 181 1.0 1.0 0.00 0.00 0.00 78 1005.1
20260505012441 52 181 0.0 0.0 0.00 0.00 0.00 78 1005.1
20260505011938 52 181 0.0 0.0 0.00 0.00 0.00 76 1004.9
20260505011433 52 181 0.0 1.0 0.00 0.00 0.00 76 1004.9
20260505010930 53 181 0.0 0.0 0.00 0.00 0.00 75 1004.8
20260505010426 53 182 0.0 0.0 0.00 0.00 0.00 73 1004.9
20260505005922 55 177 0.0 0.0 0.00 0.00 0.00 72 1004.8
20260505005419 55 179 0.0 0.0 0.00 0.00 0.00 71 1004.8
20260505004917 57 181 1.0 1.0 0.00 0.00 0.00 66 1004.7
20260505004413 58 161 0.0 0.0 0.00 0.00 0.00 62 1004.8
20260505003910 59 161 0.0 0.0 0.00 0.00 0.00 59 1004.6
20260505003407 60 161 0.0 0.0 0.00 0.00 0.00 59 1004.5
20260505002904 60 150 0.0 1.0 0.00 0.00 0.00 53 1004.5
20260505002400 60 135 0.0 1.0 0.00 0.00 0.00 55 1004.5
20260505001859 61 156 0.0 0.0 0.00 0.00 0.00 57 1004.6
20260505001355 62 158 0.0 0.0 0.00 0.00 0.00 53 1004.5
20260505000853 62 219 1.0 1.0 0.00 0.00 0.00 52 1004.6
20260505000351 62 200 0.0 1.0 0.00 0.00 0.00 52 1004.4
20260504235847 62 175 0.0 0.0 0.00 0.00 0.00 54 1004.2
20260504235344 63 177 0.0 0.0 0.00 0.00 0.00 52 1004.4
20260504234840 64 185 1.0 1.0 0.00 0.00 0.00 51 1004.3
20260504234338 65 155 0.0 0.0 0.00 0.00 0.00 49 1004.1
20260504233835 66 160 0.0 0.0 0.00 0.00 0.00 45 1004.1
20260504233330 66 155 1.0 2.0 0.00 0.00 0.00 44 1004.2
20260504232827 67 135 3.0 3.0 0.00 0.00 0.00 43 1004.0
20260504232324 67 158 1.0 2.0 0.00 0.00 0.00 44 1004.0
20260504231821 68 256 4.0 4.0 0.00 0.00 0.00 43 1003.9
20260504231318 68 114 2.0 3.0 0.00 0.00 0.00 42 1004.0
20260504230814 68 222 4.0 6.0 0.00 0.00 0.00 42 1004.1
20260504230312 68 241 2.0 3.0 0.00 0.00 0.00 42 1004.1
20260504225810 69 275 7.0 8.0 0.00 0.00 0.00 41 1004.2
20260504225306 69 204 2.0 3.0 0.00 0.00 0.00 42 1004.1
20260504224804 69 252 4.0 4.0 0.00 0.00 0.00 41 1004.1
20260504224301 69 215 5.0 7.0 0.00 0.00 0.00 40 1004.2
20260504223757 69 228 5.0 7.0 0.00 0.00 0.00 40 1004.0
20260504223253 70 316 5.0 6.0 0.00 0.00 0.00 40 1003.9
20260504222750 70 243 4.0 4.0 0.00 0.00 0.00 39 1004.0
20260504222246 70 216 2.0 2.0 0.00 0.00 0.00 40 1003.7
20260504221744 70 177 3.0 6.0 0.00 0.00 0.00 39 1004.2
20260504221241 70 183 1.0 2.0 0.00 0.00 0.00 39 1004.1
20260504220738 70 327 6.0 8.0 0.00 0.00 0.00 38 1004.4
20260504220235 70 319 4.0 8.0 0.00 0.00 0.00 40 1003.9
20260504215732 70 323 6.0 7.0 0.00 0.00 0.00 38 1004.1
20260504215229 70 311 4.0 4.0 0.00 0.00 0.00 39 1004.0
20260504214724 70 270 8.0 10.0 0.00 0.00 0.00 38 1004.0
20260504214216 70 323 4.0 6.0 0.00 0.00 0.00 40 1004.1
20260504213712 69 232 6.0 8.0 0.00 0.00 0.00 40 1004.0
20260504213209 70 246 7.0 8.0 0.00 0.00 0.00 39 1004.1
20260504212706 69 291 3.0 4.0 0.00 0.00 0.00 40 1003.9
20260504212203 69 189 3.0 3.0 0.00 0.00 0.00 43 1004.1
20260504211700 70 244 6.0 8.0 0.00 0.00 0.00 40 1004.1
20260504211156 69 255 4.0 6.0 0.00 0.00 0.00 41 1003.9
20260504210654 70 222 5.0 7.0 0.00 0.00 0.00 41 1004.4
20260504210150 71 230 4.0 6.0 0.00 0.00 0.00 39 1004.4
20260504205648 69 270 2.0 3.0 0.00 0.00 0.00 41 1004.3
20260504205144 68 219 2.0 2.0 0.00 0.00 0.00 41 1004.1
20260504204643 69 303 6.0 8.0 0.00 0.00 0.00 41 1004.1
20260504204142 69 200 4.0 7.0 0.00 0.00 0.00 42 1004.4
20260504203640 68 263 2.0 2.0 0.00 0.00 0.00 42 1004.7
20260504203137 69 305 4.0 6.0 0.00 0.00 0.00 41 1004.6
20260504202632 69 307 7.0 9.0 0.00 0.00 0.00 41 1004.4
20260504202129 67 305 3.0 3.0 0.00 0.00 0.00 42 1004.4
20260504201625 67 188 3.0 4.0 0.00 0.00 0.00 43 1004.7
20260504201124 69 291 6.0 8.0 0.00 0.00 0.00 42 1005.0
20260504200620 68 181 2.0 2.0 0.00 0.00 0.00 43 1004.8
20260504200117 67 264 3.0 3.0 0.00 0.00 0.00 44 1005.0
20260504195613 66 199 4.0 4.0 0.00 0.00 0.00 44 1004.8
20260504195109 67 170 4.0 6.0 0.00 0.00 0.00 43 1005.1
20260504194606 68 181 2.0 2.0 0.00 0.00 0.00 43 1005.1
20260504194102 66 290 3.0 3.0 0.00 0.00 0.00 43 1005.4
20260504193558 66 281 6.0 8.0 0.00 0.00 0.00 44 1005.1
20260504193057 66 321 5.0 10.0 0.00 0.00 0.00 44 1005.2
20260504192555 67 264 6.0 7.0 0.00 0.00 0.00 44 1005.4
20260504192052 67 262 2.0 2.0 0.00 0.00 0.00 42 1005.2
20260504191550 68 265 5.0 7.0 0.00 0.00 0.00 42 1005.0
20260504191046 70 218 3.0 4.0 0.00 0.00 0.00 42 1005.1
20260504190543 69 228 8.0 15.0 0.00 0.00 0.00 41 1005.2
20260504190039 69 294 10.0 13.0 0.00 0.00 0.00 41 1005.7
20260504185536 68 300 8.0 11.0 0.00 0.00 0.00 42 1005.6
20260504185033 69 252 5.0 7.0 0.00 0.00 0.00 41 1005.2
20260504184528 67 192 4.0 8.0 0.00 0.00 0.00 43 1005.4
20260504184023 66 269 6.0 7.0 0.00 0.00 0.00 46 1005.4
20260504183521 66 302 9.0 14.0 0.00 0.00 0.00 44 1005.7
20260504183019 67 296 9.0 11.0 0.00 0.00 0.00 44 1005.7
20260504182515 67 295 8.0 11.0 0.00 0.00 0.00 43 1005.8
20260504182013 66 211 5.0 8.0 0.00 0.00 0.00 46 1005.7
20260504181510 66 263 5.0 7.0 0.00 0.00 0.00 44 1005.9
20260504181009 67 65 7.0 9.0 0.00 0.00 0.00 44 1005.8
20260504180507 66 281 8.0 11.0 0.00 0.00 0.00 44 1005.7
20260504180005 67 196 2.0 3.0 0.00 0.00 0.00 44 1005.8
20260504175502 67 198 1.0 2.0 0.00 0.00 0.00 46 1005.9
20260504174959 66 171 2.0 2.0 0.00 0.00 0.00 44 1006.0
20260504174456 66 282 7.0 11.0 0.00 0.00 0.00 46 1006.0
20260504173954 66 215 4.0 6.0 0.00 0.00 0.00 45 1006.0
20260504173450 67 237 3.0 6.0 0.00 0.00 0.00 47 1005.9
20260504172947 66 187 3.0 6.0 0.00 0.00 0.00 46 1005.8
20260504172443 67 254 5.0 8.0 0.00 0.00 0.00 45 1006.0
20260504171940 66 266 4.0 6.0 0.00 0.00 0.00 46 1005.8
20260504171437 65 265 3.0 4.0 0.00 0.00 0.00 46 1006.1